Tracking 30970 objects as of 3-Jul-2025
HD Live streaming from Space Station
objects crossing your sky now

STARLINK-30533

Track STARLINK-30533 now!
10-day predictions
STARLINK-30533 is classified as:


NORAD ID: 58037
Int'l Code: 2023-156K
Perigee: 536.0 km
Apogee: 537.8 km
Inclination: 53.2 °
Period: 95.2 minutes
Semi major axis: 6907 km
RCS: Unknown
Launch date: October 9, 2023
Source: United States (US)
Launch site: AIR FORCE WESTERN TEST RANGE (AFWTR)
Your satellite tracking list
METEOR 2-17 DEB
Track 1 satellite(s)




NASA's NSSDC Master Catalog

Two Line Element Set (TLE):
1 58037U 23156K   25183.45900281 -.00000525  00000-0 -13043-4 0  9997
2 58037  53.1598 248.1953 0001293  95.5382 264.5758 15.12121538 96758
Source of the keplerian elements: AFSPC